Norfolk NAS, VA

8:36 AM EST on December 10, 2019 (GMT -0500)
Norfolk Naval Station / Chambers Field

Weather History for KNGU - October, 2019

Change the Weather History Date:

Monday, October 14, 2019

  Actual Average Record
Temperature  
Mean Temperature 68 °F -  
Max Temperature 72 °F 69 °F 84 °F (2014)
Min Temperature 63 °F 54 °F 45 °F (2006)
Cooling Degree Days 2    
Growing Degree Days 18 (Base 50)    
Moisture  
Dew Point 65 °F    
Average Humidity 90    
Maximum Humidity 97    
Minimum Humidity 75    
Precipitation  
Precipitation 0.04 in - - ()
Sea Level Pressure  
Sea Level Pressure 30.02 in    
Wind  
Wind Speed 6 mph (WSW)    
Max Wind Speed 10 mph    
Max Gust Speed -    
Visibility 9 miles    
Events Rain    
Averages and records for this station are not official NWS values.
T = Trace of Precipitation, MM = Missing Value Source: NWS Daily Summary

Daily Weather History Graph

Daily Weather History Graph

Search for Another Location

Airport or City:

Astronomy

Oct. 14, 2019 Rise Set
Actual Time 7:11 AM EDT 6:30 PM EDT
Civil Twilight 6:45 AM EDT 6:56 PM EDT
Nautical Twilight 6:15 AM EDT 7:26 PM EDT
Astronomical Twilight 5:45 AM EDT 7:56 PM EDT
Moon 7:19 PM EDT (10/14) 7:41 AM EDT (10/14)
Length of Visible Light 12h 10m
Length of Day
11h 18m
Waxing Gibbous, 99% of the Moon is Illuminated
Oct 14
Waxing Gibbous
Oct 21
Last Quarter
Oct 27
New
Nov 4
First Quarter
Nov 12
Full

Hourly Weather History & Observations

Time (EDT) Temp. Dew Point Humidity Pressure Visibility Wind Dir Wind Speed Gust Speed Precip Events Conditions
12:20 AM 66.9 °F 66.0 °F 97% 30.01 in 9.0 mi SSW 4.6 mph - 0.00 in Rain Light Rain
12:59 AM 68.0 °F 66.0 °F 93% 29.99 in 9.0 mi SSW 4.6 mph - 0.04 in Rain Light Rain
1:59 AM 68.0 °F 66.0 °F 93% 29.98 in 10.0 mi SW 5.8 mph - 0.00 in   Overcast
2:38 AM 68.0 °F 66.0 °F 93% 29.98 in 10.0 mi SW 4.6 mph - N/A   Overcast
2:59 AM 68.0 °F 66.0 °F 93% 29.97 in 10.0 mi SW 4.6 mph - N/A   Overcast
3:38 AM 68.0 °F 66.0 °F 93% 29.96 in 10.0 mi SW 4.6 mph - N/A   Overcast
3:59 AM 68.0 °F 66.9 °F 96% 29.96 in 10.0 mi SW 5.8 mph - N/A   Overcast
4:59 AM 68.0 °F 66.9 °F 96% 29.96 in 10.0 mi SW 4.6 mph - N/A   Overcast
5:59 AM 68.0 °F 66.9 °F 96% 29.99 in 10.0 mi SSW 4.6 mph - N/A   Overcast
6:27 AM 69.1 °F 66.9 °F 93% 29.99 in 10.0 mi WSW 6.9 mph - N/A   Overcast
6:59 AM 68.0 °F 66.9 °F 96% 30.01 in 9.0 mi WSW 5.8 mph - N/A   Overcast
7:59 AM 68.0 °F 66.0 °F 93% 30.02 in 9.0 mi WSW 4.6 mph - 0.00 in   Mostly Cloudy
8:10 AM 68.0 °F 66.9 °F 96% 30.02 in 9.0 mi West 3.5 mph - N/A   Mostly Cloudy
8:37 AM 69.1 °F 66.9 °F 93% 30.03 in 8.0 mi West 4.6 mph - N/A   Mostly Cloudy
8:59 AM 69.1 °F 66.9 °F 93% 30.04 in 9.0 mi WNW 6.9 mph - N/A   Mostly Cloudy
9:02 AM 69.1 °F 66.9 °F 93% 30.04 in 8.0 mi WNW 5.8 mph - N/A   Mostly Cloudy
9:47 AM 70.0 °F 66.0 °F 87% 30.05 in 10.0 mi West 6.9 mph - N/A   Mostly Cloudy
9:59 AM 70.0 °F 66.0 °F 87% 30.06 in 10.0 mi WNW 9.2 mph - N/A   Mostly Cloudy
10:54 AM 68.0 °F 64.4 °F 88% 30.07 in 8.0 mi NW 10.4 mph - N/A   Overcast
10:59 AM 68.0 °F 64.9 °F 90% 30.06 in 8.0 mi NW 10.4 mph - N/A   Overcast
11:34 AM 71.1 °F 64.9 °F 81% 30.05 in 10.0 mi NNW 10.4 mph - N/A   Mostly Cloudy
11:59 AM 70.0 °F 64.9 °F 84% 30.05 in 10.0 mi NW 6.9 mph - N/A   Mostly Cloudy
12:59 PM 69.1 °F 64.0 °F 84% 30.05 in 9.0 mi NNE 9.2 mph - N/A   Mostly Cloudy
1:59 PM 71.1 °F 64.0 °F 78% 30.03 in 10.0 mi NNE 6.9 mph - N/A   Mostly Cloudy
2:59 PM 72.0 °F 64.0 °F 76% 30.01 in 10.0 mi North 8.1 mph - N/A   Scattered Clouds
3:59 PM 71.1 °F 63.0 °F 75% 30.01 in 10.0 mi ENE 6.9 mph - N/A   Scattered Clouds
4:59 PM 70.0 °F 63.0 °F 78% 30.01 in 10.0 mi East 3.5 mph - N/A   Partly Cloudy
5:59 PM 68.0 °F 63.0 °F 84% 30.02 in 10.0 mi ENE 5.8 mph - N/A   Partly Cloudy
6:59 PM 64.9 °F 62.1 °F 90% 30.04 in 10.0 mi Calm Calm - N/A   Partly Cloudy
7:59 PM 63.0 °F 61.0 °F 93% 30.04 in 8.0 mi SSE 5.8 mph - N/A   Partly Cloudy
8:59 PM 64.0 °F 62.1 °F 93% 30.06 in 7.0 mi SSE 4.6 mph - N/A   Clear
9:59 PM 64.0 °F 63.0 °F 96% 30.06 in 7.0 mi SSE 6.9 mph - N/A   Clear
10:59 PM 64.0 °F 63.0 °F 96% 30.08 in 7.0 mi SSE 6.9 mph - N/A   Clear
11:59 PM 63.0 °F 62.1 °F 97% 30.08 in 4.0 mi South 3.5 mph - N/A   Clear